Weather History for KEWR - July, 2014

Change the Weather History Date:

Sunday, July 6, 2014

  Actual Average Record
Temperature  
Mean Temperature 75 °F 77 °F  
Max Temperature 88 °F 86 °F 103 °F (2010)
Min Temperature 61 °F 68 °F 54 °F (1979)
Degree Days  
Heating Degree Days 0 0  
Month to date heating degree days 0 0  
Since 1 June heating degree days 0 17  
Since 1 July heating degree days 0 0  
Cooling Degree Days 10 12  
Month to date cooling degree days 76 71  
Year to date cooling degree days 384 386  
Since 1 June cooling degree days 322 310  
Growing Degree Days 24 (Base 50)    
Moisture  
Dew Point 54 °F    
Average Humidity 49    
Maximum Humidity 67    
Minimum Humidity 31    
Precipitation  
Precipitation 0.00 in 0.13 in 1.15 in (1958)
Month to date precipitation 2.60 0.77  
Year to date precipitation 30.36 23.68  
Snow  
Snow 0.00 in 0.00 in 0.00 in (2002)
Month to date snowfall 0.0 0.0  
Since 1 July snowfall 0.0 0.0  
Snow Depth 0.00 in    
Sea Level Pressure  
Sea Level Pressure 30.03 in    
Wind  
Wind Speed 10 mph (SW)    
Max Wind Speed 23 mph    
Max Gust Speed 29 mph    
Visibility 10 miles    
Events      
T = Trace of Precipitation, MM = Missing Value Source: NWS Daily Summary

Daily Weather History Graph

Daily Weather History Graph

Search for Another Location

Airport or City:

Trip Planner

Search our weather history database for the weather conditions in past years. The results will help you decide how hot, cold, wet, or windy it might be!

Date:

Astronomy

Jul. 06, 2014 Rise Set
Actual Time 5:32 AM EDT 8:30 PM EDT
Civil Twilight 4:59 AM EDT 9:03 PM EDT
Nautical Twilight 4:17 AM EDT 9:45 PM EDT
Astronomical Twilight 3:28 AM EDT 10:33 PM EDT
Moon 2:26 PM EDT (7/6) 12:50 AM EDT (7/6)
Length of Visible Light 16h 04m
Length of Day
14h 58m
Waxing Gibbous, 62% of the Moon is Illuminated
Jul 6
Waxing Gibbous
Jul 12
Full
Jul 18
Last Quarter
Jul 26
New
Aug 3
First Quarter

Hourly Weather History & Observations

Time (EDT) Temp. Heat Index Dew Point Humidity Pressure Visibility Wind Dir Wind Speed Gust Speed Precip Events Conditions
12:51 AM 70.0 °F - 53.1 °F 55% 30.10 in 10.0 mi WSW 8.1 mph - N/A   Clear
1:51 AM 68.0 °F - 54.0 °F 61% 30.10 in 10.0 mi SW 5.8 mph - N/A   Clear
2:51 AM 68.0 °F - 53.1 °F 59% 30.09 in 10.0 mi WSW 6.9 mph - N/A   Clear
3:51 AM 66.0 °F - 53.1 °F 63% 30.08 in 10.0 mi WSW 6.9 mph - N/A   Clear
4:51 AM 64.0 °F - 53.1 °F 67% 30.08 in 10.0 mi WSW 6.9 mph - N/A   Clear
5:51 AM 64.0 °F - 53.1 °F 67% 30.09 in 10.0 mi WSW 4.6 mph - N/A   Scattered Clouds
6:51 AM 66.0 °F - 54.0 °F 65% 30.11 in 10.0 mi SW 3.5 mph - N/A   Scattered Clouds
7:51 AM 71.1 °F - 54.0 °F 55% 30.10 in 10.0 mi WSW 8.1 mph - N/A   Scattered Clouds
8:51 AM 75.0 °F - 55.0 °F 50% 30.10 in 10.0 mi SW 5.8 mph - N/A   Scattered Clouds
9:51 AM 79.0 °F - 54.0 °F 42% 30.08 in 10.0 mi Variable 4.6 mph - N/A   Scattered Clouds
10:51 AM 81.0 °F - 52.0 °F 36% 30.06 in 10.0 mi WSW 8.1 mph - N/A   Scattered Clouds
11:51 AM 84.0 °F - 51.1 °F 32% 30.04 in 10.0 mi WSW 12.7 mph 24.2 mph N/A   Scattered Clouds
12:51 PM 84.9 °F 83.3 °F 54.0 °F 34% 30.02 in 10.0 mi SSW 11.5 mph 20.7 mph N/A   Scattered Clouds
1:51 PM 86.0 °F 84.2 °F 53.6 °F 33% 30.00 in 10.0 mi WSW 17.3 mph 24.2 mph N/A   Scattered Clouds
2:51 PM 86.0 °F 84.2 °F 54.0 °F 33% 29.99 in 10.0 mi WSW 16.1 mph 19.6 mph N/A   Scattered Clouds
3:51 PM 87.1 °F 84.9 °F 53.1 °F 31% 29.97 in 10.0 mi SW 13.8 mph 24.2 mph N/A   Scattered Clouds
4:51 PM 86.0 °F 84.0 °F 53.1 °F 32% 29.96 in 10.0 mi SW 11.5 mph 21.9 mph N/A   Mostly Cloudy
5:51 PM 84.2 °F 82.8 °F 53.6 °F 35% 29.94 in 10.0 mi SW 15.0 mph 21.9 mph N/A   Mostly Cloudy
6:51 PM 82.9 °F 81.8 °F 53.1 °F 36% 29.94 in 10.0 mi WSW 21.9 mph 26.5 mph N/A   Mostly Cloudy
7:51 PM 82.0 °F 81.4 °F 55.0 °F 39% 29.94 in 10.0 mi SW 13.8 mph 21.9 mph N/A   Mostly Cloudy
8:51 PM 80.1 °F 80.2 °F 55.9 °F 43% 29.94 in 10.0 mi SW 11.5 mph - N/A   Mostly Cloudy
9:51 PM 79.0 °F - 55.9 °F 45% 29.94 in 10.0 mi SW 12.7 mph - N/A   Scattered Clouds
10:51 PM 75.2 °F - 60.8 °F 61% 29.94 in 10.0 mi South 10.4 mph - N/A   Scattered Clouds
11:51 PM 73.9 °F - 61.0 °F 64% 29.95 in 10.0 mi SSW 10.4 mph - N/A   Mostly Cloudy